Location: Terra Rouge Observatory
(46.0000°N, 62.7500°W)
Time: 19:21:56
(UTC-03:00)

NOSS 3-1 (A) - Visible Passes

Search period start: 25 September 2017 00:00
Search period end: 05 October 2017 00:00
Orbit: 824 x 1388 km, 63.4° (Epoch: 21 September)

Date Brightness Start Highest point End Pass type
(mag) Time Alt. Az. Time Alt. Az. Time Alt. Az.
25 Sep 4.1 19:44:36 10° NW 19:52:10 90° ENE 20:00:35 10° SE visible
25 Sep 5.9 21:36:35 10° WNW 21:42:33 24° WSW 21:48:53 10° SSW visible
26 Sep 5.4 20:51:14 10° NW 20:58:06 36° WSW 21:05:34 10° S visible
27 Sep 4.8 20:06:11 10° NW 20:13:33 53° WSW 20:21:38 10° SSE visible
27 Sep 6.6 22:01:27 10° W 22:03:13 11° WSW 22:05:00 10° WSW visible
28 Sep 4.4 19:21:19 10° NW 19:28:52 75° SW 19:37:15 10° SSE visible
28 Sep 6.3 21:13:57 10° WNW 21:18:59 19° WSW 21:24:16 10° SSW visible
29 Sep 5.9 20:28:15 10° WNW 20:34:38 29° WSW 20:41:28 10° SSW visible
30 Sep 5.4 19:43:02 10° NW 19:50:08 42° WSW 19:57:53 10° S visible
01 Oct 6.7 20:51:49 10° WNW 20:55:23 14° WSW 20:59:04 10° SW visible
02 Oct 6.4 20:05:27 10° WNW 20:11:06 22° WSW 20:17:06 10° SSW visible
03 Oct 5.9 19:19:58 10° NW 19:26:41 33° WSW 19:33:57 10° S visible
